TimePDT,TemperatureF,Dew PointF,Humidity,Sea Level PressureIn,VisibilityMPH,Wind Direction,Wind SpeedMPH,Gust SpeedMPH,PrecipitationIn,Events,Conditions,WindDirDegrees,DateUTC
12:53 AM,82.0,55.9,41,29.78,10.0,NW,13.8,-,N/A,,Clear,320,2013-07-28 07:53:00
1:53 AM,80.1,55.9,43,29.78,10.0,NW,9.2,-,N/A,,Clear,320,2013-07-28 08:53:00
2:53 AM,77.0,55.0,47,29.78,10.0,NW,5.8,-,N/A,,Clear,310,2013-07-28 09:53:00
3:53 AM,73.9,55.0,52,29.78,10.0,NW,4.6,-,N/A,,Clear,320,2013-07-28 10:53:00
4:53 AM,73.0,54.0,51,29.78,10.0,Calm,Calm,-,N/A,,Clear,0,2013-07-28 11:53:00
5:53 AM,68.0,57.0,68,29.79,10.0,Calm,Calm,-,N/A,,Clear,0,2013-07-28 12:53:00
6:53 AM,71.1,55.9,59,29.80,10.0,West,3.5,-,N/A,,Clear,270,2013-07-28 13:53:00
7:53 AM,73.9,54.0,50,29.81,10.0,WSW,3.5,-,N/A,,Clear,240,2013-07-28 14:53:00
8:53 AM,78.1,55.0,45,29.82,10.0,Variable,3.5,-,N/A,,Clear,0,2013-07-28 15:53:00
9:53 AM,82.9,54.0,37,29.81,10.0,Calm,Calm,-,N/A,,Clear,0,2013-07-28 16:53:00
10:53 AM,88.0,48.0,25,29.80,10.0,Variable,3.5,-,N/A,,Clear,0,2013-07-28 17:53:00
11:53 AM,91.0,51.1,25,29.80,10.0,Calm,Calm,-,N/A,,Clear,0,2013-07-28 18:53:00
12:53 PM,95.0,51.1,22,29.78,10.0,Variable,4.6,-,N/A,,Clear,0,2013-07-28 19:53:00
1:53 PM,96.1,53.1,23,29.75,10.0,SE,3.5,-,N/A,,Partly Cloudy,130,2013-07-28 20:53:00
2:53 PM,98.1,55.0,24,29.73,10.0,Variable,4.6,-,N/A,,Partly Cloudy,0,2013-07-28 21:53:00
3:53 PM,100.0,53.1,21,29.72,10.0,North,10.4,-,N/A,,Mostly Cloudy,10,2013-07-28 22:53:00
4:53 PM,99.0,52.0,21,29.71,10.0,NW,8.1,-,N/A,,Mostly Cloudy,320,2013-07-28 23:53:00
5:53 PM,99.0,48.9,18,29.71,10.0,North,9.2,-,N/A,,Mostly Cloudy,360,2013-07-29 00:53:00
6:53 PM,97.0,48.0,19,29.71,10.0,NW,13.8,-,N/A,,Scattered Clouds,320,2013-07-29 01:53:00
7:53 PM,93.0,53.1,26,29.72,10.0,NW,11.5,-,N/A,,Partly Cloudy,310,2013-07-29 02:53:00
8:53 PM,89.1,55.9,32,29.73,10.0,NW,11.5,-,N/A,,Clear,320,2013-07-29 03:53:00
9:53 PM,84.9,57.0,38,29.75,10.0,NW,13.8,-,N/A,,Clear,310,2013-07-29 04:53:00
10:53 PM,82.9,55.9,39,29.75,10.0,NW,11.5,-,N/A,,Clear,320,2013-07-29 05:53:00
11:53 PM,79.0,55.9,45,29.76,10.0,NW,9.2,-,N/A,,Clear,320,2013-07-29 06:53:00